DW8546 Weather Reports


Display with metric or nautical units.
time (UTC)temp
F
wind
direction
speed
MPH
gust
MPH
rain 1hr
in
rain 24hr
in
rain mn
in
humidity
%
barometer
mb
20180814150027 63 352 0.0 4.0 0.00 0.00 0.00 56 945.9
20180814145541 63 32 1.0 6.0 0.00 0.00 0.00 55 947.5
20180814143038 65 295 9.0 15.0 0.00 0.00 0.00 53 945.8
20180814142552 65 306 9.0 14.0 0.00 0.00 0.00 53 947.4
20180814140039 62 2 3.0 10.0 0.00 0.00 0.00 57 945.6
20180814135545 63 326 6.0 13.0 0.00 0.00 0.00 56 947.2
20180814133035 64 333 2.0 11.0 0.00 0.00 0.00 54 945.5
20180814132551 65 329 4.0 12.0 0.00 0.00 0.00 53 947.1
20180814130044 64 322 6.0 13.0 0.00 0.00 0.00 51 945.3
20180814125549 65 321 6.0 14.0 0.00 0.00 0.00 50 947.1
20180814123104 65 310 6.0 12.0 0.00 0.00 0.00 51 945.3
20180814122543 65 307 6.0 12.0 0.00 0.00 0.00 51 946.9
20180814121504 65 330 8.0 14.0 0.00 0.00 0.00 50 945.2
20180814120051 65 314 8.0 14.0 0.00 0.00 0.00 51 945.2
20180814115600 65 307 9.0 15.0 0.00 0.00 0.00 51 946.8
20180814114504 65 319 6.0 11.0 0.00 0.00 0.00 51 945.1
20180814113107 65 336 7.0 15.0 0.00 0.00 0.00 50 945.1
20180814112600 65 8 6.0 15.0 0.00 0.00 0.00 50 946.7
20180814110120 64 297 7.0 12.0 0.00 0.00 0.00 51 945.2
20180814105543 65 301 5.0 10.0 0.00 0.00 0.00 50 946.8
20180814103102 64 281 0.0 6.0 0.00 0.00 0.00 54 945.3
20180814102600 65 342 4.0 11.0 0.00 0.00 0.00 51 946.9
20180814100046 64 103 0.0 0.0 0.00 0.00 0.00 52 945.3
20180814095557 64 67 0.0 0.0 0.00 0.00 0.00 52 947.0
20180814093049 66 359 0.0 8.0 0.00 0.00 0.00 48 945.3
20180814092543 67 1 2.0 9.0 0.00 0.00 0.00 47 947.0
20180814090040 67 282 8.0 11.0 0.00 0.00 0.00 46 945.3
20180814085549 66 321 3.0 8.0 0.00 0.00 0.00 49 946.9
20180814083041 67 44 0.0 3.0 0.00 0.00 0.00 46 945.5
20180814082552 67 74 0.0 3.0 0.00 0.00 0.00 46 947.1
20180814081517 67 152 0.0 1.0 0.00 0.00 0.00 49 945.4
20180814080042 68 282 2.0 11.0 0.00 0.00 0.00 44 945.3
20180814075556 69 295 6.0 9.0 0.00 0.00 0.00 46 947.0
20180814073109 70 2 5.0 11.0 0.00 0.00 0.00 41 945.2
20180814072554 71 314 4.0 10.0 0.00 0.00 0.00 40 946.9
20180814071556 71 316 3.0 11.0 0.00 0.00 0.00 38 945.2
20180814070006 71 318 6.0 10.0 0.00 0.00 0.00 40 945.1
20180814065541 70 4 7.0 10.0 0.00 0.00 0.00 42 946.7
20180814063046 69 283 0.0 2.0 0.00 0.00 0.00 42 945.1
20180814062556 70 286 0.0 2.0 0.00 0.00 0.00 42 946.7
20180814060026 69 255 0.0 1.0 0.00 0.00 0.00 43 944.9
20180814055542 70 255 0.0 1.0 0.00 0.00 0.00 45 946.5
20180814053035 71 351 0.0 1.0 0.00 0.00 0.00 41 944.8
20180814052542 71 251 0.0 0.0 0.00 0.00 0.00 42 946.4
20180814050047 73 252 0.0 1.0 0.00 0.00 0.00 39 944.4
20180814045557 73 264 0.0 1.0 0.00 0.00 0.00 38 946.1
20180814043037 74 245 0.0 2.0 0.00 0.00 0.00 38 944.2
20180814042549 74 250 0.0 2.0 0.00 0.00 0.00 37 945.9
20180814040047 75 244 0.0 2.0 0.00 0.00 0.00 36 943.9
20180814035555 75 243 0.0 2.0 0.00 0.00 0.00 36 945.6
20180814033053 75 281 0.0 1.0 0.00 0.00 0.00 36 943.4
20180814032559 76 281 0.0 0.0 0.00 0.00 0.00 36 945.0
20180814031506 76 292 0.0 0.0 0.00 0.00 0.00 35 943.2
20180814030050 77 292 0.0 1.0 0.00 0.00 0.00 34 943.2
20180814025602 78 292 0.0 1.0 0.00 0.00 0.00 33 944.9
20180814023041 80 232 0.0 1.0 0.00 0.00 0.00 32 943.1
20180814022550 82 219 0.0 1.0 0.00 0.00 0.00 32 944.9
20180814020040 85 134 0.0 0.0 0.00 0.00 0.00 33 943.0
20180814015548 87 134 0.0 0.0 0.00 0.00 0.00 27 944.8
20180814013051 89 134 0.0 0.0 0.00 0.00 0.00 27 943.3
20180814012553 89 134 0.0 0.0 0.00 0.00 0.00 26 945.1
20180814010105 90 134 0.0 0.0 0.00 0.00 0.00 24 943.4
20180814005556 91 134 0.0 0.0 0.00 0.00 0.00 26 945.2
20180814003042 90 134 0.0 0.0 0.00 0.00 0.00 27 943.7
20180814002556 90 134 0.0 0.0 0.00 0.00 0.00 26 945.6
20180814000030 89 188 0.0 1.0 0.00 0.00 0.00 27 944.0
20180813235547 89 122 0.0 1.0 0.00 0.00 0.00 27 945.8
20180813233045 89 86 0.0 1.0 0.00 0.00 0.00 27 944.4
20180813232543 90 221 0.0 1.0 0.00 0.00 0.00 25 946.1
20180813231501 90 219 0.0 1.0 0.00 0.00 0.00 27 944.5
20180813230105 88 16 0.0 3.0 0.00 0.00 0.00 28 944.8
20180813225602 88 70 0.0 3.0 0.00 0.00 0.00 27 946.5
20180813224509 88 59 0.0 1.0 0.00 0.00 0.00 28 945.0
20180813223108 88 98 0.0 2.0 0.00 0.00 0.00 26 945.2
20180813222601 89 159 0.0 1.0 0.00 0.00 0.00 31 947.0
20180813215553 87 142 1.0 4.0 0.00 0.00 0.00 31 947.4
20180813215115 87 118 0.0 1.0 0.00 0.00 0.00 30 945.8
20180813213707 86 278 0.0 2.0 0.00 0.00 0.00 32 946.0
20180813212600 85 162 0.0 2.0 0.00 0.00 0.00 32 948.0
20180813210043 83 63 0.0 2.0 0.00 0.00 0.00 34 946.5
20180813205548 83 134 0.0 2.0 0.00 0.00 0.00 38 948.3
20180813203051 82 207 0.0 4.0 0.00 0.00 0.00 35 946.9
20180813202604 82 90 0.0 1.0 0.00 0.00 0.00 38 948.6
20180813200054 80 76 0.0 3.0 0.00 0.00 0.00 37 947.4
20180813195556 80 82 0.0 1.0 0.00 0.00 0.00 42 949.2
20180813195103 79 140 0.0 1.0 0.00 0.00 0.00 42 947.6
20180813193523 78 84 0.0 2.0 0.00 0.00 0.00 43 947.6
20180813192601 77 160 0.0 4.0 0.00 0.00 0.00 44 949.4
20180813191943 77 353 0.0 2.0 0.00 0.00 0.00 41 947.9
20180813190533 75 131 0.0 3.0 0.00 0.00 0.00 45 948.0
20180813185600 75 99 0.0 2.0 0.00 0.00 0.00 47 949.8
20180813184925 75 126 0.0 2.0 0.00 0.00 0.00 46 948.2
20180813183517 74 140 0.0 2.0 0.00 0.00 0.00 46 948.3
20180813182545 74 79 0.0 2.0 0.00 0.00 0.00 48 950.2
20180813181931 72 168 0.0 2.0 0.00 0.00 0.00 49 948.7
20180813180346 72 69 0.0 2.0 0.00 0.00 0.00 53 948.8
20180813175550 71 101 1.0 2.0 0.00 0.00 0.00 54 950.5
20180813174923 70 3 0.0 2.0 0.00 0.00 0.00 54 948.9
20180813173347 69 48 0.0 4.0 0.00 0.00 0.00 58 949.0
20180813172551 69 56 1.0 4.0 0.00 0.00 0.00 60 950.7
20180813171918 68 60 1.0 4.0 0.00 0.00 0.00 60 949.1
20180813170341 67 12 1.0 5.0 0.00 0.00 0.00 60 949.4
20180813165546 67 46 3.0 7.0 0.00 0.00 0.00 61 951.3
20180813164800 66 334 3.0 8.0 0.00 0.00 0.00 61 949.7
20180813163352 65 309 3.0 7.0 0.00 0.00 0.00 61 949.8
20180813162600 65 320 4.0 9.0 0.00 0.00 0.00 62 951.6
20180813161806 64 11 5.0 11.0 0.00 0.00 0.00 63 950.0
20180813160353 64 314 4.0 8.0 0.00 0.00 0.00 65 950.0
20180813155556 64 286 2.0 7.0 0.00 0.00 0.00 66 951.7
20180813154755 63 346 3.0 8.0 0.00 0.00 0.00 66 950.1
20180813153354 62 101 0.0 2.0 0.00 0.00 0.00 69 950.2
20180813152556 62 18 1.0 6.0 0.00 0.00 0.00 68 951.8
20180813151809 62 1 0.0 2.0 0.00 0.00 0.00 69 950.2